sat.trackr.live / text

‹ back to catalog

STRIX-6

NORAD 68291 · 2026-056A

PAYLOAD ACTIVE UNKNOWN

§ Identity

Operator
Country
JPN
Launch date
2026-03-20
Launch site
RLLB
Launch vehicle
Mass (kg)
RCS (m²)

External: N2YO · Heavens-Above · Gunter

§ Orbital elements

Epoch: 2026-05-25T03:28:53.724000Z

Period
96.00 min
Inclination
50.2821°
Eccentricity
0.0016094
Mean motion
14.99981544 rev/d
Perigee alt
555.8 km
Apogee alt
578.1 km
Semi-major
6,945.1 km
B*
2.2580e-4
RAAN
98.7022°
Arg perigee
155.3251°
Mean anomaly
204.8471°
Rev number
981

§ Raw data

STRIX-61 68291U 26056A   26145.14506625  .00002580  00000+0  22580-3 0  99962 68291  50.2821  98.7022 0016094 155.3251 204.8471 14.99981544  9814

JSON: /api/v1/satellites/68291 · /tle

For live sub-satellite position, see the globe view (requires WebGL).

§ Visibility from observer

Set your observer location to see the next 7 days of passes ≥ 10°. The values pass through the URL so the page stays shareable.

No JS? Fill the form by hand. The geolocation button needs JavaScript.